Location: Dentlein
(49.1477°N, 10.4231°E)
Time: 10:19:51
(UTC+00:00)

SL-16 R/B - Pass Details

Date: 23 May 2024
Orbit: 842 x 845 km, 71.0° (Epoch: 15 June)

Event Time Altitude Azimuth Distance (km) Brightness Sun altitude
Rises 01:35:28 0° 327° (NNW) 3,416 5.7 -13.5°
Reaches altitude 10° 01:38:00 10° 322° (NW) 2,477 4.9 -13.3°
Maximum altitude 01:43:23 46° 251° (WSW) 1,123 2.5 -12.8°
Drops below altitude 10° 01:48:45 10° 179° (S) 2,460 4.1 -12.3°
Enters shadow 01:49:00 - 178° (S) 2,548 4.2 -12.3°
